Location: Brabourne
(51.1333°N, 1.0000°E)
Time: 12:32:49
(UTC+00:00)

BREEZE-M R/B - Visible Passes

Search period start: 23 October 2021 00:00
Search period end: 02 November 2021 00:00
Orbit: 583 x 26584 km, 48.9° (Epoch: 23 October)

Date Brightness Start Highest point End Pass type
(mag) Time Alt. Az. Time Alt. Az. Time Alt. Az.
23 Oct 3.2 18:40:36 10° W 18:43:56 49° SSW 18:45:40 29° SE visible
24 Oct 2.9 18:02:39 10° W 18:06:12 57° S 18:09:11 17° ESE visible
25 Oct 2.8 17:24:32 10° W 17:28:27 64° S 17:32:18 10° ESE visible
